TVP7775 LTBS-EPKT

Flight info

Callsign TVP7775
Flight time 2h 28m
Altitude 36000
Route ERFES BATUK Z713 ULKAN UN127 LMO ATFIR SOF SODGO EKNAB OLMIP EVRIK ADUKU NARKA PERIT KEKED KSC KOJOT RAZEC LENOV
Aircraft B38M/M-SDE3FGHIJ1J3J4J7M3P2RWXY/LB1D1

Departure

Time 2026-04-28 17:00
Airport Dalaman International Airport (LTBS)

Arrival

Time 2026-04-28 19:29
Airport Katowice Wojciech Korfanty International Airport (EPKT)
Time Latitude Longitude Altitude Speed Heading
2026-04-28 16:20 36.72184 28.79036 14 ft 0 kts 285°
2026-04-28 16:52 36.72180 28.79053 14 ft 4 kts 290°
2026-04-28 16:52 36.72168 28.79082 17 ft 4 kts 313°
2026-04-28 16:52 36.72147 28.79098 18 ft 4 kts 356°
2026-04-28 16:53 36.72134 28.79096 17 ft 1 kts 14°
2026-04-28 16:53 36.72132 28.79096 17 ft 0 kts 14°
2026-04-28 16:57 36.72136 28.79097 17 ft 2 kts 14°
2026-04-28 16:57 36.72181 28.79112 16 ft 11 kts 14°
2026-04-28 16:57 36.72272 28.79144 14 ft 15 kts 15°
2026-04-28 16:57 36.72377 28.79181 14 ft 16 kts 15°
2026-04-28 16:58 36.72493 28.79220 14 ft 18 kts 15°
2026-04-28 16:58 36.72615 28.79262 14 ft 15 kts 15°
2026-04-28 16:58 36.72690 28.79324 14 ft 13 kts 84°
2026-04-28 16:58 36.72668 28.79438 14 ft 14 kts 105°
2026-04-28 16:59 36.72640 28.79564 14 ft 16 kts 105°
2026-04-28 16:59 36.72568 28.79664 14 ft 17 kts 166°
2026-04-28 16:59 36.72441 28.79634 14 ft 24 kts 195°
2026-04-28 16:59 36.72054 28.79501 14 ft 95 kts 195°
2026-04-28 17:00 36.71208 28.79213 15 ft 158 kts 195°
2026-04-28 17:00 36.70061 28.78817 477 ft 175 kts 196°
2026-04-28 17:00 36.68901 28.78395 1376 ft 174 kts 197°
2026-04-28 17:00 36.67701 28.77975 2066 ft 185 kts 195°
2026-04-28 17:01 36.66421 28.77550 2799 ft 192 kts 195°
2026-04-28 17:01 36.65081 28.77103 3465 ft 207 kts 195°
2026-04-28 17:01 36.63702 28.76436 4166 ft 220 kts 214°
2026-04-28 17:01 36.62734 28.74921 4725 ft 239 kts 252°
2026-04-28 17:02 36.62650 28.72823 5440 ft 253 kts 282°
2026-04-28 17:02 36.62985 28.71366 5896 ft 265 kts 286°
2026-04-28 17:02 36.63664 28.68356 6997 ft 275 kts 285°
2026-04-28 17:02 36.64176 28.66048 7962 ft 279 kts 285°
2026-04-28 17:03 36.65262 28.61322 9746 ft 288 kts 293°
2026-04-28 17:03 36.66422 28.59282 10528 ft 296 kts 316°
2026-04-28 17:03 36.68055 28.57587 10968 ft 315 kts 320°
2026-04-28 17:04 36.71682 28.53923 11706 ft 353 kts 321°
2026-04-28 17:04 36.73604 28.51998 12249 ft 363 kts 321°
2026-04-28 17:05 36.77571 28.48024 13726 ft 370 kts 319°
2026-04-28 17:05 36.79503 28.45882 14417 ft 373 kts 317°
2026-04-28 17:05 36.81453 28.43713 15087 ft 377 kts 318°
2026-04-28 17:06 36.84747 28.40068 16149 ft 383 kts 318°
2026-04-28 17:06 36.86749 28.37854 16763 ft 387 kts 318°
2026-04-28 17:06 36.90813 28.33358 17941 ft 394 kts 318°
2026-04-28 17:07 36.92874 28.31075 18509 ft 397 kts 318°
2026-04-28 17:07 36.94952 28.28771 19056 ft 400 kts 318°
2026-04-28 17:07 36.97144 28.26596 19571 ft 404 kts 329°
2026-04-28 17:07 36.99733 28.25205 20108 ft 407 kts 340°
2026-04-28 17:08 37.02419 28.24039 20585 ft 411 kts 341°
2026-04-28 17:08 37.05098 28.22900 21082 ft 414 kts 341°
2026-04-28 17:08 37.07840 28.21754 21564 ft 417 kts 341°
2026-04-28 17:08 37.10605 28.20609 22029 ft 420 kts 341°
2026-04-28 17:09 37.13389 28.19461 22478 ft 423 kts 341°
2026-04-28 17:09 37.16193 28.18304 22935 ft 425 kts 341°
2026-04-28 17:09 37.19013 28.17140 23370 ft 428 kts 341°
2026-04-28 17:09 37.21851 28.15968 23794 ft 431 kts 341°
2026-04-28 17:10 37.24717 28.14790 24215 ft 434 kts 342°
2026-04-28 17:10 37.27602 28.13631 24622 ft 436 kts 341°
2026-04-28 17:10 37.30348 28.12062 24998 ft 438 kts 326°
2026-04-28 17:10 37.32763 28.09700 25388 ft 440 kts 320°
2026-04-28 17:11 37.35124 28.07230 25717 ft 443 kts 319°
2026-04-28 17:11 37.37482 28.04722 26096 ft 445 kts 319°
2026-04-28 17:11 37.39845 28.02179 26450 ft 448 kts 319°
2026-04-28 17:11 37.42208 27.99619 26795 ft 450 kts 319°
2026-04-28 17:12 37.44590 27.97033 27133 ft 453 kts 319°
2026-04-28 17:12 37.46978 27.94435 27462 ft 455 kts 319°
2026-04-28 17:12 37.49347 27.91857 27781 ft 457 kts 319°
2026-04-28 17:12 37.51759 27.89228 28095 ft 459 kts 319°
2026-04-28 17:13 37.54185 27.86583 28404 ft 462 kts 319°
2026-04-28 17:13 37.56620 27.83925 28715 ft 464 kts 319°
2026-04-28 17:13 37.59066 27.81253 29007 ft 466 kts 319°
2026-04-28 17:13 37.61521 27.78568 29297 ft 468 kts 319°
2026-04-28 17:14 37.63982 27.75874 29579 ft 470 kts 319°
2026-04-28 17:14 37.66433 27.73188 29857 ft 472 kts 319°
2026-04-28 17:14 37.68920 27.70462 30135 ft 474 kts 319°
2026-04-28 17:14 37.71402 27.67738 30487 ft 474 kts 319°
2026-04-28 17:15 37.73890 27.65005 30865 ft 473 kts 319°
2026-04-28 17:15 37.76369 27.62279 31229 ft 472 kts 319°
2026-04-28 17:15 37.78845 27.59554 31591 ft 471 kts 319°
2026-04-28 17:15 37.81317 27.56831 31934 ft 471 kts 319°
2026-04-28 17:16 37.83784 27.54111 32286 ft 470 kts 319°
2026-04-28 17:16 37.86248 27.51391 32634 ft 469 kts 319°
2026-04-28 17:16 37.88703 27.48678 32955 ft 468 kts 319°
2026-04-28 17:16 37.91155 27.45968 33278 ft 468 kts 318°
2026-04-28 17:17 37.93608 27.43253 33595 ft 467 kts 318°
2026-04-28 17:17 37.96021 27.40581 33907 ft 466 kts 318°
2026-04-28 17:17 37.98461 27.37875 34218 ft 466 kts 318°
2026-04-28 17:17 38.00904 27.35164 34507 ft 465 kts 318°
2026-04-28 17:18 38.03336 27.32462 34799 ft 465 kts 318°
2026-04-28 17:18 38.05773 27.29753 35078 ft 464 kts 318°
2026-04-28 17:18 38.08203 27.27049 35341 ft 464 kts 318°
2026-04-28 17:18 38.10626 27.24350 35590 ft 463 kts 318°
2026-04-28 17:19 38.13024 27.21677 35833 ft 463 kts 318°
2026-04-28 17:19 38.15448 27.18971 36006 ft 463 kts 318°
2026-04-28 17:19 38.20281 27.13571 36004 ft 461 kts 318°
2026-04-28 17:20 38.24285 27.09090 36002 ft 461 kts 318°
2026-04-28 17:20 38.29912 27.02784 35999 ft 461 kts 318°
2026-04-28 17:21 38.34755 26.97428 36000 ft 461 kts 319°
2026-04-28 17:22 38.42003 26.89421 35998 ft 461 kts 319°
2026-04-28 17:22 38.46850 26.84055 35998 ft 461 kts 319°
2026-04-28 17:23 38.54118 26.75987 35998 ft 461 kts 319°
2026-04-28 17:23 38.58931 26.70633 35999 ft 461 kts 319°
2026-04-28 17:24 38.63778 26.65231 35998 ft 461 kts 319°
2026-04-28 17:24 38.68617 26.59828 36004 ft 461 kts 318°
2026-04-28 17:25 38.75868 26.51713 36001 ft 461 kts 318°
2026-04-28 17:26 38.80663 26.46334 36003 ft 461 kts 318°
2026-04-28 17:26 38.85568 26.41030 36005 ft 461 kts 320°
2026-04-28 17:27 38.90520 26.35782 36000 ft 461 kts 320°
2026-04-28 17:27 38.95466 26.30520 36001 ft 461 kts 320°
2026-04-28 17:28 39.00401 26.25257 36002 ft 461 kts 320°
2026-04-28 17:28 39.07810 26.17339 36002 ft 461 kts 320°
2026-04-28 17:29 39.12745 26.12052 35998 ft 461 kts 320°
2026-04-28 17:30 39.20110 26.04144 36001 ft 461 kts 320°
2026-04-28 17:30 39.27506 25.96182 36002 ft 461 kts 320°
2026-04-28 17:31 39.34815 25.88067 36001 ft 461 kts 319°
2026-04-28 17:32 39.42108 25.79935 36005 ft 461 kts 319°
2026-04-28 17:32 39.46931 25.74544 35998 ft 461 kts 319°
2026-04-28 17:33 39.51788 25.69104 35998 ft 461 kts 319°
2026-04-28 17:33 39.55823 25.64578 36000 ft 461 kts 319°
2026-04-28 17:34 39.61486 25.58213 36000 ft 461 kts 319°
2026-04-28 17:34 39.66342 25.52743 36002 ft 461 kts 319°
2026-04-28 17:35 39.71160 25.47306 36001 ft 461 kts 319°
2026-04-28 17:35 39.76001 25.41833 35998 ft 461 kts 319°
2026-04-28 17:36 39.80842 25.36349 36002 ft 461 kts 319°
2026-04-28 17:36 39.85674 25.30864 36000 ft 461 kts 319°
2026-04-28 17:37 39.90522 25.25353 35998 ft 461 kts 318°
2026-04-28 17:37 39.95631 25.20368 36000 ft 461 kts 323°
2026-04-28 17:38 40.00819 25.15412 36002 ft 461 kts 323°
2026-04-28 17:38 40.05968 25.10448 35998 ft 461 kts 323°
2026-04-28 17:39 40.11131 25.05456 36001 ft 461 kts 323°
2026-04-28 17:40 40.18850 24.97976 36002 ft 461 kts 323°
2026-04-28 17:40 40.24007 24.92967 35998 ft 461 kts 323°
2026-04-28 17:41 40.29185 24.87927 36002 ft 461 kts 323°
2026-04-28 17:41 40.34337 24.82903 36002 ft 461 kts 323°
2026-04-28 17:42 40.39448 24.77909 35998 ft 461 kts 323°
2026-04-28 17:42 40.44608 24.72858 36003 ft 461 kts 323°
2026-04-28 17:43 40.49729 24.67834 35998 ft 461 kts 323°
2026-04-28 17:43 40.54886 24.62766 36003 ft 461 kts 323°
2026-04-28 17:44 40.60029 24.57701 35998 ft 461 kts 323°
2026-04-28 17:44 40.65164 24.52634 36001 ft 461 kts 323°
2026-04-28 17:45 40.70301 24.47556 36000 ft 461 kts 323°
2026-04-28 17:45 40.75440 24.42466 36002 ft 461 kts 322°
2026-04-28 17:46 40.80569 24.37375 35998 ft 461 kts 322°
2026-04-28 17:46 40.85698 24.32274 36000 ft 461 kts 322°
2026-04-28 17:47 40.90789 24.27200 36002 ft 461 kts 322°
2026-04-28 17:47 40.95918 24.22079 36001 ft 461 kts 322°
2026-04-28 17:48 41.01042 24.16953 36000 ft 461 kts 322°
2026-04-28 17:48 41.06163 24.11819 35998 ft 461 kts 322°
2026-04-28 17:49 41.11292 24.06667 36001 ft 461 kts 322°
2026-04-28 17:49 41.16374 24.01552 36004 ft 461 kts 322°
2026-04-28 17:50 41.21485 23.96397 36000 ft 461 kts 322°
2026-04-28 17:50 41.26601 23.91229 35999 ft 461 kts 322°
2026-04-28 17:51 41.31710 23.86058 36001 ft 461 kts 322°
2026-04-28 17:51 41.36820 23.80875 35998 ft 461 kts 322°
2026-04-28 17:51 41.39465 23.78473 35987 ft 461 kts 333°
2026-04-28 17:52 41.42463 23.77004 36005 ft 460 kts 346°
2026-04-28 17:52 41.51856 23.74079 36001 ft 463 kts 347°
2026-04-28 17:53 41.58107 23.72236 36002 ft 462 kts 347°
2026-04-28 17:53 41.64391 23.70394 36002 ft 462 kts 347°
2026-04-28 17:54 41.69625 23.68856 35997 ft 462 kts 347°
2026-04-28 17:54 41.75912 23.67008 36001 ft 462 kts 347°
2026-04-28 17:55 41.82212 23.65151 35999 ft 463 kts 347°
2026-04-28 17:55 41.88502 23.63294 36003 ft 463 kts 347°
2026-04-28 17:56 41.94786 23.61434 35999 ft 463 kts 347°
2026-04-28 17:56 42.01069 23.59571 36000 ft 463 kts 347°
2026-04-28 17:57 42.07362 23.57701 35998 ft 463 kts 347°
2026-04-28 17:57 42.13645 23.55831 35995 ft 462 kts 347°
2026-04-28 17:58 42.19900 23.53965 36000 ft 463 kts 347°
2026-04-28 17:58 42.26186 23.52086 36003 ft 463 kts 347°
2026-04-28 17:59 42.32470 23.50204 35997 ft 463 kts 347°
2026-04-28 17:59 42.38768 23.48314 35998 ft 463 kts 347°
2026-04-28 18:00 42.45020 23.46433 35999 ft 463 kts 347°
2026-04-28 18:00 42.51319 23.44535 36001 ft 463 kts 347°
2026-04-28 18:01 42.57567 23.42648 36002 ft 463 kts 347°
2026-04-28 18:01 42.63854 23.40746 36001 ft 463 kts 347°
2026-04-28 18:02 42.70155 23.38909 35997 ft 462 kts 350°
2026-04-28 18:02 42.76516 23.37418 36000 ft 463 kts 349°
2026-04-28 18:03 42.82812 23.35898 36003 ft 463 kts 349°
2026-04-28 18:03 42.89152 23.34360 36001 ft 463 kts 349°
2026-04-28 18:04 42.95495 23.32818 36000 ft 463 kts 349°
2026-04-28 18:04 43.01836 23.31274 36002 ft 463 kts 349°
2026-04-28 18:05 43.07105 23.29988 35999 ft 463 kts 349°
2026-04-28 18:05 43.14511 23.28176 36002 ft 463 kts 349°
2026-04-28 18:06 43.20853 23.26622 35999 ft 463 kts 349°
2026-04-28 18:06 43.27201 23.25062 36000 ft 463 kts 349°
2026-04-28 18:07 43.33535 23.23503 36003 ft 463 kts 349°
2026-04-28 18:07 43.39850 23.21945 35998 ft 463 kts 349°
2026-04-28 18:08 43.46184 23.20379 35999 ft 463 kts 349°
2026-04-28 18:08 43.52525 23.18808 35999 ft 463 kts 349°
2026-04-28 18:09 43.58864 23.17234 35997 ft 463 kts 349°
2026-04-28 18:09 43.65207 23.15656 35999 ft 463 kts 349°
2026-04-28 18:10 43.71513 23.14084 36001 ft 463 kts 349°
2026-04-28 18:10 43.77852 23.12500 36000 ft 463 kts 349°
2026-04-28 18:11 43.84194 23.10912 36000 ft 463 kts 349°
2026-04-28 18:11 43.90538 23.09319 35997 ft 463 kts 349°
2026-04-28 18:12 43.96882 23.07724 36003 ft 463 kts 349°
2026-04-28 18:12 44.03211 23.06129 36003 ft 463 kts 349°
2026-04-28 18:13 44.09553 23.04527 36000 ft 463 kts 349°
2026-04-28 18:13 44.15848 23.02933 36000 ft 463 kts 349°
2026-04-28 18:14 44.22193 23.01324 35997 ft 463 kts 349°
2026-04-28 18:14 44.28532 22.99712 36000 ft 463 kts 349°
2026-04-28 18:15 44.34871 22.98096 35998 ft 463 kts 349°
2026-04-28 18:15 44.41173 22.96487 35996 ft 463 kts 349°
2026-04-28 18:16 44.47519 22.94863 36003 ft 463 kts 349°
2026-04-28 18:16 44.53854 22.93238 35997 ft 463 kts 349°
2026-04-28 18:17 44.60193 22.91609 36002 ft 463 kts 349°
2026-04-28 18:17 44.66529 22.89976 35999 ft 463 kts 349°
2026-04-28 18:18 44.72827 22.88351 35999 ft 463 kts 349°
2026-04-28 18:18 44.78137 22.86977 36000 ft 463 kts 349°
2026-04-28 18:19 44.85499 22.85068 35998 ft 463 kts 348°
2026-04-28 18:19 44.91690 22.82608 35999 ft 462 kts 343°
2026-04-28 18:20 44.97878 22.80126 36000 ft 462 kts 344°
2026-04-28 18:20 45.04072 22.77669 36003 ft 462 kts 344°
2026-04-28 18:21 45.10273 22.75209 36004 ft 463 kts 344°
2026-04-28 18:21 45.16473 22.72742 35997 ft 462 kts 344°
2026-04-28 18:22 45.22637 22.70290 36655 ft 448 kts 342°
2026-04-28 18:22 45.25572 22.69116 36458 ft 431 kts 341°
2026-04-28 18:22 45.28444 22.67966 36232 ft 427 kts 341°
2026-04-28 18:23 45.31302 22.66822 36122 ft 426 kts 341°
2026-04-28 18:23 45.34159 22.65677 36084 ft 426 kts 341°
2026-04-28 18:23 45.39882 22.63380 36108 ft 427 kts 341°
2026-04-28 18:24 45.44634 22.61470 36110 ft 427 kts 341°
2026-04-28 18:24 45.51280 22.58793 36108 ft 427 kts 341°
2026-04-28 18:25 45.56999 22.56484 36110 ft 427 kts 341°
2026-04-28 18:26 45.65574 22.53013 36099 ft 426 kts 341°
2026-04-28 18:26 45.71285 22.50696 36109 ft 426 kts 342°
2026-04-28 18:27 45.76979 22.48361 36112 ft 426 kts 341°
2026-04-28 18:27 45.82634 22.46038 36112 ft 425 kts 342°
2026-04-28 18:28 45.88319 22.43698 36115 ft 424 kts 341°
2026-04-28 18:28 45.93995 22.41358 36113 ft 424 kts 341°
2026-04-28 18:29 45.99662 22.39015 36113 ft 423 kts 341°
2026-04-28 18:29 46.05314 22.36675 36114 ft 423 kts 341°
2026-04-28 18:30 46.10959 22.34333 36108 ft 422 kts 342°
2026-04-28 18:30 46.16588 22.31993 36115 ft 421 kts 342°
2026-04-28 18:31 46.22225 22.29645 36112 ft 420 kts 341°
2026-04-28 18:31 46.27794 22.27320 36117 ft 419 kts 341°
2026-04-28 18:32 46.33394 22.24977 36118 ft 418 kts 342°
2026-04-28 18:32 46.38993 22.22630 36121 ft 418 kts 342°
2026-04-28 18:33 46.44583 22.20283 36120 ft 418 kts 341°
2026-04-28 18:33 46.50163 22.17934 36123 ft 417 kts 341°
2026-04-28 18:34 46.55741 22.15582 36120 ft 417 kts 341°
2026-04-28 18:34 46.61315 22.13227 36123 ft 417 kts 341°
2026-04-28 18:35 46.66888 22.10865 36125 ft 416 kts 341°
2026-04-28 18:35 46.72442 22.08509 36123 ft 416 kts 341°
2026-04-28 18:36 46.77959 22.06162 36124 ft 415 kts 341°
2026-04-28 18:36 46.83509 22.03796 36133 ft 415 kts 341°
2026-04-28 18:37 46.89051 22.01429 36131 ft 414 kts 341°
2026-04-28 18:37 46.94584 21.99058 36130 ft 413 kts 341°
2026-04-28 18:38 47.00103 21.96687 36156 ft 413 kts 341°
2026-04-28 18:38 47.05622 21.94311 36160 ft 413 kts 341°
2026-04-28 18:39 47.11100 21.91947 36154 ft 412 kts 341°
2026-04-28 18:39 47.16607 21.89567 36155 ft 412 kts 341°
2026-04-28 18:40 47.22107 21.87183 36150 ft 412 kts 341°
2026-04-28 18:40 47.27611 21.84792 36138 ft 411 kts 341°
2026-04-28 18:41 47.33097 21.82402 36151 ft 411 kts 341°
2026-04-28 18:41 47.37657 21.80412 36152 ft 411 kts 341°
2026-04-28 18:42 47.43134 21.78017 36155 ft 410 kts 341°
2026-04-28 18:42 47.48610 21.75618 36159 ft 410 kts 341°
2026-04-28 18:43 47.54080 21.73215 36160 ft 410 kts 341°
2026-04-28 18:43 47.59546 21.70810 36155 ft 410 kts 341°
2026-04-28 18:44 47.65015 21.68396 36154 ft 410 kts 341°
2026-04-28 18:44 47.73181 21.64785 36151 ft 410 kts 341°
2026-04-28 18:45 47.78649 21.62359 36172 ft 410 kts 341°
2026-04-28 18:45 47.84119 21.59926 36179 ft 409 kts 341°
2026-04-28 18:46 47.89571 21.57496 36182 ft 409 kts 341°
2026-04-28 18:46 47.95008 21.55066 36186 ft 408 kts 341°
2026-04-28 18:47 48.00444 21.52633 36184 ft 407 kts 340°
2026-04-28 18:47 48.05870 21.50196 36175 ft 407 kts 340°
2026-04-28 18:48 48.11253 21.47777 36176 ft 406 kts 340°
2026-04-28 18:48 48.16670 21.45336 36174 ft 406 kts 340°
2026-04-28 18:49 48.21207 21.43286 36170 ft 406 kts 340°
2026-04-28 18:49 48.25001 21.41570 36165 ft 406 kts 340°
2026-04-28 18:50 48.27202 21.40573 36167 ft 406 kts 340°
2026-04-28 18:50 48.32611 21.38120 36172 ft 406 kts 340°
2026-04-28 18:51 48.38023 21.35659 36186 ft 406 kts 340°
2026-04-28 18:51 48.43400 21.33209 36192 ft 406 kts 340°
2026-04-28 18:52 48.48813 21.30738 36201 ft 406 kts 340°
2026-04-28 18:52 48.54306 21.28638 36214 ft 408 kts 346°
2026-04-28 18:53 48.59907 21.27094 36209 ft 409 kts 346°
2026-04-28 18:53 48.65481 21.25582 36215 ft 409 kts 346°
2026-04-28 18:54 48.71033 21.23754 36218 ft 408 kts 343°
2026-04-28 18:54 48.76564 21.21757 36209 ft 408 kts 343°
2026-04-28 18:55 48.81166 21.20112 36209 ft 409 kts 343°
2026-04-28 18:55 48.87642 21.17795 36196 ft 409 kts 343°
2026-04-28 18:56 48.93184 21.15807 36203 ft 409 kts 343°
2026-04-28 18:56 48.98726 21.13805 36219 ft 409 kts 343°
2026-04-28 18:57 49.04226 21.11799 36219 ft 409 kts 343°
2026-04-28 18:57 49.09762 21.09776 36221 ft 409 kts 343°
2026-04-28 18:58 49.15299 21.07754 36230 ft 409 kts 343°
2026-04-28 18:58 49.20833 21.05730 35969 ft 407 kts 343°
2026-04-28 18:59 49.23588 21.04720 35759 ft 406 kts 343°
2026-04-28 18:59 49.26329 21.03715 35536 ft 404 kts 343°
2026-04-28 18:59 49.29053 21.02715 34889 ft 402 kts 343°
2026-04-28 18:59 49.31734 21.01487 34022 ft 400 kts 332°
2026-04-28 19:00 49.34032 20.99225 33468 ft 391 kts 319°
2026-04-28 19:00 49.36000 20.96337 32719 ft 390 kts 315°
2026-04-28 19:00 49.37677 20.93180 32279 ft 384 kts 305°
2026-04-28 19:00 49.39195 20.89853 31904 ft 374 kts 308°
2026-04-28 19:01 49.40745 20.86612 31509 ft 382 kts 308°
2026-04-28 19:01 49.42355 20.83280 31098 ft 390 kts 308°
2026-04-28 19:01 49.43982 20.79927 30696 ft 394 kts 308°
2026-04-28 19:01 49.45635 20.76527 30304 ft 399 kts 308°
2026-04-28 19:02 49.47300 20.73099 29835 ft 402 kts 308°
2026-04-28 19:02 49.48979 20.69636 29355 ft 405 kts 308°
2026-04-28 19:02 49.50669 20.66149 28878 ft 406 kts 307°
2026-04-28 19:02 49.52331 20.62713 28420 ft 405 kts 307°
2026-04-28 19:03 49.54008 20.59243 27948 ft 403 kts 307°
2026-04-28 19:03 49.55678 20.55780 27476 ft 402 kts 307°
2026-04-28 19:03 49.57340 20.52331 26986 ft 400 kts 307°
2026-04-28 19:03 49.58988 20.48907 26494 ft 398 kts 307°
2026-04-28 19:04 49.60636 20.45477 26169 ft 396 kts 307°
2026-04-28 19:04 49.62274 20.42066 25880 ft 395 kts 307°
2026-04-28 19:04 49.63907 20.38660 25600 ft 394 kts 307°
2026-04-28 19:04 49.65534 20.35262 25332 ft 393 kts 307°
2026-04-28 19:05 49.67159 20.31864 25058 ft 392 kts 307°
2026-04-28 19:05 49.68780 20.28469 24792 ft 392 kts 307°
2026-04-28 19:05 49.70395 20.25083 24540 ft 391 kts 307°
2026-04-28 19:05 49.72005 20.21703 24263 ft 390 kts 307°
2026-04-28 19:06 49.73613 20.18322 23993 ft 389 kts 307°
2026-04-28 19:06 49.74671 20.16096 23827 ft 389 kts 306°
2026-04-28 19:06 49.76806 20.11597 23107 ft 386 kts 306°
2026-04-28 19:06 49.78383 20.08270 22499 ft 382 kts 307°
2026-04-28 19:07 49.79945 20.04970 21908 ft 378 kts 306°
2026-04-28 19:07 49.81493 20.01695 21332 ft 376 kts 306°
2026-04-28 19:07 49.83031 19.98438 20754 ft 373 kts 306°
2026-04-28 19:07 49.84560 19.95195 20183 ft 371 kts 307°
2026-04-28 19:08 49.86074 19.91981 19611 ft 369 kts 307°
2026-04-28 19:08 49.87566 19.88809 19069 ft 368 kts 307°
2026-04-28 19:08 49.89071 19.85606 18509 ft 367 kts 307°
2026-04-28 19:08 49.90570 19.82412 17900 ft 365 kts 307°
2026-04-28 19:09 49.92062 19.79229 17342 ft 362 kts 306°
2026-04-28 19:09 49.93538 19.76077 16814 ft 360 kts 307°
2026-04-28 19:09 49.95003 19.72945 16301 ft 357 kts 307°
2026-04-28 19:09 49.96457 19.69830 15792 ft 355 kts 307°
2026-04-28 19:10 49.97901 19.66735 15287 ft 353 kts 307°
2026-04-28 19:10 49.99338 19.63652 14794 ft 351 kts 307°
2026-04-28 19:10 50.00764 19.60588 14302 ft 349 kts 307°
2026-04-28 19:10 50.02185 19.57532 13799 ft 347 kts 307°
2026-04-28 19:11 50.03597 19.54491 13278 ft 345 kts 307°
2026-04-28 19:11 50.04997 19.51474 12796 ft 342 kts 307°
2026-04-28 19:11 50.06385 19.48477 12334 ft 339 kts 307°
2026-04-28 19:11 50.07757 19.45513 11877 ft 336 kts 307°
2026-04-28 19:12 50.09112 19.42581 11562 ft 330 kts 307°
2026-04-28 19:12 50.10431 19.39724 11391 ft 319 kts 307°
2026-04-28 19:12 50.11695 19.36982 11220 ft 310 kts 307°
2026-04-28 19:12 50.12935 19.34291 11029 ft 301 kts 307°
2026-04-28 19:13 50.14096 19.31768 10898 ft 292 kts 307°
2026-04-28 19:13 50.15153 19.29470 10759 ft 284 kts 307°
2026-04-28 19:13 50.16287 19.27003 10608 ft 275 kts 307°
2026-04-28 19:13 50.17385 19.24610 10469 ft 267 kts 307°
2026-04-28 19:14 50.18449 19.22290 10320 ft 259 kts 307°
2026-04-28 19:14 50.19491 19.20018 10026 ft 257 kts 307°
2026-04-28 19:14 50.20513 19.17784 9700 ft 248 kts 307°
2026-04-28 19:14 50.21497 19.15634 9416 ft 238 kts 307°
2026-04-28 19:15 50.22457 19.13535 9166 ft 236 kts 307°
2026-04-28 19:15 50.23411 19.11447 8897 ft 236 kts 307°
2026-04-28 19:15 50.24361 19.09363 8627 ft 235 kts 307°
2026-04-28 19:15 50.24988 19.07988 8453 ft 235 kts 307°
2026-04-28 19:16 50.26241 19.05241 8104 ft 234 kts 306°
2026-04-28 19:16 50.27045 19.03026 7840 ft 235 kts 297°
2026-04-28 19:16 50.27725 19.00698 7501 ft 237 kts 296°
2026-04-28 19:16 50.28404 18.98327 7139 ft 240 kts 296°
2026-04-28 19:17 50.29085 18.95956 6820 ft 237 kts 296°
2026-04-28 19:17 50.29752 18.93627 6531 ft 232 kts 296°
2026-04-28 19:17 50.30414 18.91320 6262 ft 232 kts 296°
2026-04-28 19:17 50.31076 18.89013 6002 ft 232 kts 296°
2026-04-28 19:18 50.31739 18.86718 5761 ft 231 kts 296°
2026-04-28 19:18 50.32401 18.84429 5608 ft 229 kts 296°
2026-04-28 19:18 50.33059 18.82160 5517 ft 229 kts 296°
2026-04-28 19:18 50.33720 18.79886 5431 ft 229 kts 296°
2026-04-28 19:19 50.34379 18.77611 5346 ft 229 kts 296°
2026-04-28 19:19 50.35040 18.75340 5249 ft 230 kts 296°
2026-04-28 19:19 50.35705 18.73056 4980 ft 231 kts 296°
2026-04-28 19:19 50.36370 18.70774 4754 ft 229 kts 296°
2026-04-28 19:20 50.37020 18.68537 4642 ft 228 kts 296°
2026-04-28 19:20 50.37676 18.66269 4568 ft 228 kts 296°
2026-04-28 19:20 50.38331 18.64002 4488 ft 228 kts 296°
2026-04-28 19:20 50.38984 18.61736 4404 ft 227 kts 296°
2026-04-28 19:21 50.39633 18.59479 4110 ft 227 kts 296°
2026-04-28 19:21 50.40383 18.57337 3998 ft 223 kts 315°
2026-04-28 19:21 50.41702 18.56192 3987 ft 220 kts 349°
2026-04-28 19:21 50.43232 18.56192 4009 ft 222 kts 13°
2026-04-28 19:22 50.44618 18.57214 4002 ft 222 kts 39°
2026-04-28 19:22 50.44980 18.57755 3997 ft 220 kts 49°
2026-04-28 19:22 50.45842 18.61387 4013 ft 218 kts 79°
2026-04-28 19:22 50.46087 18.63734 4007 ft 218 kts 78°
2026-04-28 19:23 50.46343 18.66081 4001 ft 218 kts 78°
2026-04-28 19:23 50.46604 18.68423 4004 ft 218 kts 78°
2026-04-28 19:23 50.46868 18.70768 3998 ft 218 kts 78°
2026-04-28 19:23 50.47131 18.73085 4026 ft 209 kts 78°
2026-04-28 19:24 50.47382 18.75274 4005 ft 199 kts 77°
2026-04-28 19:24 50.47618 18.77408 3990 ft 198 kts 82°
2026-04-28 19:24 50.47658 18.79572 3929 ft 199 kts 88°
2026-04-28 19:24 50.47647 18.81750 3711 ft 199 kts 88°
2026-04-28 19:25 50.47640 18.83868 3473 ft 194 kts 88°
2026-04-28 19:25 50.47636 18.85944 3268 ft 186 kts 88°
2026-04-28 19:25 50.47632 18.87927 3104 ft 177 kts 87°
2026-04-28 19:25 50.47629 18.89831 2992 ft 170 kts 87°
2026-04-28 19:26 50.47628 18.91655 2778 ft 164 kts 87°
2026-04-28 19:26 50.47625 18.93384 2516 ft 154 kts 87°
2026-04-28 19:26 50.47623 18.95036 2285 ft 149 kts 87°
2026-04-28 19:26 50.47617 18.96668 2033 ft 151 kts 86°
2026-04-28 19:27 50.47616 18.98306 1803 ft 149 kts 87°
2026-04-28 19:27 50.47615 18.99933 1588 ft 149 kts 88°
2026-04-28 19:27 50.47610 19.01554 1401 ft 148 kts 89°
2026-04-28 19:27 50.47606 19.02622 1318 ft 146 kts 88°
2026-04-28 19:28 50.47608 19.04759 1141 ft 147 kts 89°
2026-04-28 19:28 50.47604 19.05821 1063 ft 146 kts 88°
2026-04-28 19:28 50.47602 19.07299 1004 ft 114 kts 91°
2026-04-28 19:28 50.47599 19.08219 1000 ft 70 kts 90°
2026-04-28 19:29 50.47597 19.08927 1003 ft 61 kts 90°
2026-04-28 19:29 50.47596 19.09237 1004 ft 31 kts 90°
2026-04-28 19:29 50.47502 19.09391 1001 ft 18 kts 181°
2026-04-28 19:29 50.47378 19.09387 1006 ft 15 kts 180°
2026-04-28 19:30 50.47292 19.09386 1001 ft 11 kts 180°
2026-04-28 19:30 50.47235 19.09357 1003 ft 8 kts 237°
2026-04-28 19:30 50.47231 19.09231 1006 ft 15 kts 270°
2026-04-28 19:30 50.47231 19.09048 1006 ft 18 kts 271°
2026-04-28 19:31 50.47232 19.08844 1004 ft 20 kts 270°
2026-04-28 19:31 50.47232 19.08619 1004 ft 21 kts 270°
2026-04-28 19:31 50.47233 19.08382 1003 ft 22 kts 270°
2026-04-28 19:31 50.47233 19.08138 1005 ft 24 kts 270°
2026-04-28 19:32 50.47234 19.07881 1001 ft 24 kts 270°
2026-04-28 19:32 50.47234 19.07619 1005 ft 23 kts 270°
2026-04-28 19:32 50.47235 19.07403 1002 ft 14 kts 270°
2026-04-28 19:32 50.47212 19.07344 1006 ft 6 kts 185°
2026-04-28 19:33 50.47187 19.07344 1004 ft 1 kts 180°
2026-04-28 19:33 50.47183 19.07344 1003 ft 0 kts 180°